Time,TemperatureF,DewpointF,PressureIn,WindDirection,WindDirectionDegrees,WindSpeedMPH,WindSpeedGustMPH,Humidity,HourlyPrecipIn,Conditions,Clouds,dailyrainin,SoftwareType,DateUTC
2013-02-13 00:02:00,25.0,23.0,-100.00,WNW,295,6.0,7.0,93,0.00,,,-99.99,,2013-02-13 06:02:00,
2013-02-13 00:11:00,26.0,24.0,-100.00,WNW,290,7.0,9.0,93,0.00,,,-99.99,,2013-02-13 06:11:00,
2013-02-13 00:21:00,26.0,24.0,-100.00,WNW,295,7.0,8.0,93,0.00,,,-99.99,,2013-02-13 06:21:00,
2013-02-13 00:32:00,25.0,23.0,-100.00,West,275,2.0,6.0,92,0.00,,,-99.99,,2013-02-13 06:32:00,
2013-02-13 00:42:00,25.0,23.0,-100.00,West,275,2.0,6.0,92,0.00,,,-99.99,,2013-02-13 06:42:00,
2013-02-13 00:51:00,24.0,22.0,-100.00,West,275,2.0,4.0,92,0.00,,,-99.99,,2013-02-13 06:51:00,
2013-02-13 01:02:00,24.0,22.0,-100.00,West,275,2.0,4.0,92,0.00,,,-99.99,,2013-02-13 07:02:00,
2013-02-13 01:11:00,24.0,22.0,-100.00,West,280,4.0,4.0,92,0.00,,,-99.99,,2013-02-13 07:11:00,
2013-02-13 01:21:00,23.0,22.0,-100.00,West,275,4.0,5.0,92,0.00,,,-99.99,,2013-02-13 07:21:00,
2013-02-13 01:31:00,23.0,21.0,-100.00,West,280,3.0,4.0,92,0.00,,,-99.99,,2013-02-13 07:31:00,
2013-02-13 01:41:00,23.0,21.0,-100.00,West,280,3.0,4.0,92,0.00,,,-99.99,,2013-02-13 07:41:00,
2013-02-13 01:51:00,22.0,21.0,-100.00,West,280,2.0,3.0,93,0.00,,,-99.99,,2013-02-13 07:51:00,
2013-02-13 02:01:00,22.0,21.0,-100.00,West,280,2.0,3.0,93,0.00,,,-99.99,,2013-02-13 08:01:00,
2013-02-13 02:11:00,23.0,21.0,-100.00,West,265,2.0,3.0,93,0.00,,,-99.99,,2013-02-13 08:11:00,
2013-02-13 02:21:00,22.0,21.0,-100.00,WSW,250,2.0,3.0,93,0.00,,,-99.99,,2013-02-13 08:21:00,
2013-02-13 02:32:00,22.0,20.0,-100.00,West,280,4.0,4.0,93,0.00,,,-99.99,,2013-02-13 08:32:00,
2013-02-13 02:43:00,22.0,20.0,-100.00,West,280,4.0,4.0,93,0.00,,,-99.99,,2013-02-13 08:43:00,
2013-02-13 02:52:00,22.0,20.0,-100.00,West,270,2.0,4.0,94,0.00,,,-99.99,,2013-02-13 08:52:00,
2013-02-13 03:01:00,22.0,20.0,-100.00,West,270,2.0,4.0,94,0.00,,,-99.99,,2013-02-13 09:01:00,
2013-02-13 03:11:00,21.0,20.0,-100.00,West,275,3.0,3.0,94,0.00,,,-99.99,,2013-02-13 09:11:00,
2013-02-13 03:21:00,22.0,20.0,-100.00,West,270,2.0,3.0,94,0.00,,,-99.99,,2013-02-13 09:21:00,
2013-02-13 03:31:00,21.0,20.0,-100.00,West,260,2.0,5.0,94,0.00,,,-99.99,,2013-02-13 09:31:00,
2013-02-13 03:41:00,21.0,20.0,-100.00,West,260,2.0,5.0,94,0.00,,,-99.99,,2013-02-13 09:41:00,
2013-02-13 03:51:00,20.0,19.0,-100.00,West,275,2.0,3.0,94,0.00,,,-99.99,,2013-02-13 09:51:00,
2013-02-13 04:01:00,20.0,19.0,-100.00,West,275,2.0,3.0,94,0.00,,,-99.99,,2013-02-13 10:01:00,
2013-02-13 04:11:00,20.0,19.0,-100.00,WNW,295,2.0,2.0,94,0.00,,,-99.99,,2013-02-13 10:11:00,
2013-02-13 04:21:00,20.0,19.0,-100.00,WNW,285,4.0,4.0,95,0.00,,,-99.99,,2013-02-13 10:21:00,
2013-02-13 04:32:00,20.0,19.0,-100.00,West,265,1.0,3.0,95,0.00,,,-99.99,,2013-02-13 10:32:00,
2013-02-13 04:41:00,20.0,19.0,-100.00,West,265,1.0,3.0,95,0.00,,,-99.99,,2013-02-13 10:41:00,
2013-02-13 04:51:00,20.0,19.0,-100.00,West,270,4.0,4.0,95,0.00,,,-99.99,,2013-02-13 10:51:00,
2013-02-13 05:01:00,20.0,19.0,-100.00,West,270,4.0,4.0,95,0.00,,,-99.99,,2013-02-13 11:01:00,
2013-02-13 05:11:00,20.0,19.0,-100.00,West,280,2.0,4.0,95,0.00,,,-99.99,,2013-02-13 11:11:00,
2013-02-13 05:22:00,20.0,19.0,-100.00,NW,315,0.0,4.0,95,0.00,,,-99.99,,2013-02-13 11:22:00,
2013-02-13 05:32:00,20.0,19.0,-100.00,West,275,1.0,2.0,95,0.00,,,-99.99,,2013-02-13 11:32:00,
2013-02-13 05:42:00,20.0,19.0,-100.00,West,275,1.0,2.0,95,0.00,,,-99.99,,2013-02-13 11:42:00,
2013-02-13 05:52:00,19.0,18.0,-100.00,West,270,1.0,4.0,95,0.00,,,-99.99,,2013-02-13 11:52:00,
2013-02-13 06:02:00,19.0,18.0,-100.00,West,270,1.0,4.0,95,0.00,,,-99.99,,2013-02-13 12:02:00,
2013-02-13 06:11:00,20.0,18.0,-100.00,West,280,6.0,6.0,95,0.00,,,-99.99,,2013-02-13 12:11:00,
2013-02-13 06:21:00,21.0,20.0,-100.00,West,280,4.0,6.0,95,0.00,,,-99.99,,2013-02-13 12:21:00,
2013-02-13 06:32:00,21.0,20.0,-100.00,WSW,250,2.0,3.0,95,0.00,,,-99.99,,2013-02-13 12:32:00,
2013-02-13 06:42:00,21.0,20.0,-100.00,WSW,250,2.0,3.0,95,0.00,,,-99.99,,2013-02-13 12:42:00,
2013-02-13 06:52:00,21.0,20.0,-100.00,West,280,4.0,5.0,95,0.00,,,-99.99,,2013-02-13 12:52:00,
2013-02-13 07:02:00,21.0,20.0,-100.00,West,280,4.0,5.0,95,0.00,,,-99.99,,2013-02-13 13:02:00,
2013-02-13 07:11:00,21.0,20.0,-100.00,West,275,0.0,4.0,95,0.00,,,-99.99,,2013-02-13 13:11:00,
2013-02-13 07:21:00,21.0,20.0,-100.00,West,265,1.0,1.0,95,0.00,,,-99.99,,2013-02-13 13:21:00,
2013-02-13 07:32:00,21.0,20.0,-100.00,North,0,0.0,2.0,95,0.00,,,-99.99,,2013-02-13 13:32:00,
2013-02-13 07:41:00,21.0,20.0,-100.00,North,0,0.0,2.0,95,0.00,,,-99.99,,2013-02-13 13:41:00,
2013-02-13 07:51:00,22.0,21.0,-100.00,West,270,2.0,2.0,95,0.00,,,-99.99,,2013-02-13 13:51:00,
2013-02-13 08:01:00,22.0,21.0,-100.00,West,270,2.0,2.0,95,0.00,,,-99.99,,2013-02-13 14:01:00,
2013-02-13 08:11:00,23.0,22.0,-100.00,West,265,1.0,2.0,95,0.00,,,-99.99,,2013-02-13 14:11:00,
2013-02-13 08:21:00,24.0,23.0,-100.00,West,270,0.0,2.0,95,0.00,,,-99.99,,2013-02-13 14:21:00,
2013-02-13 08:31:00,26.0,24.0,-100.00,WSW,255,1.0,3.0,95,0.00,,,-99.99,,2013-02-13 14:31:00,
2013-02-13 08:41:00,26.0,24.0,-100.00,WSW,255,1.0,3.0,95,0.00,,,-99.99,,2013-02-13 14:41:00,
2013-02-13 08:52:00,26.0,25.0,-100.00,West,280,2.0,4.0,95,0.00,,,-99.99,,2013-02-13 14:52:00,
2013-02-13 09:01:00,26.0,25.0,-100.00,West,280,2.0,4.0,95,0.00,,,-99.99,,2013-02-13 15:01:00,
2013-02-13 09:11:00,27.0,25.0,-100.00,West,275,6.0,7.0,94,0.00,,,-99.99,,2013-02-13 15:11:00,
2013-02-13 09:21:00,27.0,26.0,-100.00,West,280,6.0,7.0,93,0.00,,,-99.99,,2013-02-13 15:21:00,
2013-02-13 09:32:00,28.0,26.0,-100.00,WSW,240,4.0,7.0,90,0.00,,,-99.99,,2013-02-13 15:32:00,
2013-02-13 09:42:00,28.0,26.0,-100.00,WSW,240,4.0,7.0,90,0.00,,,-99.99,,2013-02-13 15:42:00,
2013-02-13 09:51:00,29.0,26.0,-100.00,SW,230,4.0,8.0,86,0.00,,,-99.99,,2013-02-13 15:51:00,
2013-02-13 10:01:00,29.0,26.0,-100.00,SW,230,4.0,8.0,86,0.00,,,-99.99,,2013-02-13 16:01:00,
2013-02-13 10:11:00,30.0,26.0,-100.00,SW,220,6.0,9.0,84,0.00,,,-99.99,,2013-02-13 16:11:00,
2013-02-13 10:21:00,31.0,26.0,-100.00,SW,230,5.0,9.0,82,0.00,,,-99.99,,2013-02-13 16:21:00,
2013-02-13 10:31:00,31.0,26.0,-100.00,SSW,210,4.0,9.0,81,0.00,,,-99.99,,2013-02-13 16:31:00,
2013-02-13 10:42:00,31.0,26.0,-100.00,SSW,210,4.0,9.0,81,0.00,,,-99.99,,2013-02-13 16:42:00,
2013-02-13 10:51:00,31.0,26.0,-100.00,SW,220,7.0,10.0,80,0.00,,,-99.99,,2013-02-13 16:51:00,
2013-02-13 11:01:00,31.0,26.0,-100.00,SW,220,7.0,10.0,80,0.00,,,-99.99,,2013-02-13 17:01:00,
2013-02-13 11:11:00,32.0,27.0,-100.00,WSW,255,6.0,9.0,80,0.00,,,-99.99,,2013-02-13 17:11:00,
2013-02-13 11:21:00,33.0,27.0,-100.00,WSW,240,6.0,9.0,79,0.00,,,-99.99,,2013-02-13 17:21:00,
2013-02-13 11:31:00,34.0,27.0,-100.00,SW,230,6.0,9.0,75,0.00,,,-99.99,,2013-02-13 17:31:00,
2013-02-13 11:41:00,34.0,27.0,-100.00,SW,230,6.0,9.0,75,0.00,,,-99.99,,2013-02-13 17:41:00,
2013-02-13 11:52:00,35.0,27.0,-100.00,WSW,250,7.0,11.0,73,0.00,,,-99.99,,2013-02-13 17:52:00,
2013-02-13 12:01:00,35.0,27.0,-100.00,WSW,250,7.0,11.0,73,0.00,,,-99.99,,2013-02-13 18:01:00,
2013-02-13 12:11:00,35.0,27.0,-100.00,WSW,255,7.0,12.0,73,0.00,,,-99.99,,2013-02-13 18:11:00,
2013-02-13 12:22:00,35.0,27.0,-100.00,SW,220,6.0,12.0,73,0.00,,,-99.99,,2013-02-13 18:22:00,
2013-02-13 12:32:00,36.0,28.0,-100.00,West,265,7.0,12.0,73,0.00,,,-99.99,,2013-02-13 18:32:00,
2013-02-13 12:41:00,36.0,28.0,-100.00,West,265,7.0,12.0,73,0.00,,,-99.99,,2013-02-13 18:41:00,
2013-02-13 12:52:00,37.0,29.0,-100.00,WSW,240,8.0,12.0,72,0.00,,,-99.99,,2013-02-13 18:52:00,
2013-02-13 13:01:00,37.0,29.0,-100.00,WSW,240,8.0,12.0,72,0.00,,,-99.99,,2013-02-13 19:01:00,
2013-02-13 13:11:00,37.0,29.0,-100.00,SW,215,6.0,11.0,73,0.00,,,-99.99,,2013-02-13 19:11:00,
2013-02-13 13:21:00,38.0,31.0,-100.00,SW,230,5.0,10.0,73,0.00,,,-99.99,,2013-02-13 19:21:00,
2013-02-13 13:31:00,39.0,29.0,-100.00,SW,220,8.0,12.0,67,0.00,,,-99.99,,2013-02-13 19:31:00,
2013-02-13 13:41:00,39.0,29.0,-100.00,SW,220,8.0,12.0,67,0.00,,,-99.99,,2013-02-13 19:41:00,
2013-02-13 13:51:00,41.0,30.0,-100.00,SW,230,7.0,12.0,64,0.00,,,-99.99,,2013-02-13 19:51:00,
2013-02-13 14:02:00,41.0,30.0,-100.00,SW,230,7.0,12.0,64,0.00,,,-99.99,,2013-02-13 20:02:00,
2013-02-13 14:11:00,41.0,30.0,-100.00,SW,235,7.0,11.0,62,0.00,,,-99.99,,2013-02-13 20:11:00,
2013-02-13 14:21:00,41.0,29.0,-100.00,WSW,240,9.0,15.0,61,0.00,,,-99.99,,2013-02-13 20:21:00,
2013-02-13 14:31:00,42.0,29.0,-100.00,SW,225,6.0,11.0,60,0.00,,,-99.99,,2013-02-13 20:31:00,
2013-02-13 14:41:00,42.0,29.0,-100.00,SW,225,6.0,11.0,60,0.00,,,-99.99,,2013-02-13 20:41:00,
2013-02-13 14:52:00,43.0,29.0,-100.00,SW,235,6.0,11.0,58,0.00,,,-99.99,,2013-02-13 20:52:00,
2013-02-13 15:01:00,43.0,29.0,-100.00,SW,235,6.0,11.0,58,0.00,,,-99.99,,2013-02-13 21:01:00,
2013-02-13 15:11:00,43.0,29.0,-100.00,SW,220,7.0,11.0,58,0.00,,,-99.99,,2013-02-13 21:11:00,
2013-02-13 15:21:00,43.0,29.0,-100.00,SW,230,9.0,12.0,58,0.00,,,-99.99,,2013-02-13 21:21:00,
2013-02-13 15:31:00,42.0,30.0,-100.00,SW,230,7.0,15.0,61,0.00,,,-99.99,,2013-02-13 21:31:00,
2013-02-13 15:42:00,42.0,30.0,-100.00,SW,230,7.0,15.0,61,0.00,,,-99.99,,2013-02-13 21:42:00,
2013-02-13 15:52:00,43.0,31.0,-100.00,SW,220,7.0,11.0,64,0.00,,,-99.99,,2013-02-13 21:52:00,
2013-02-13 16:02:00,43.0,31.0,-100.00,SW,220,7.0,11.0,64,0.00,,,-99.99,,2013-02-13 22:02:00,
2013-02-13 16:11:00,43.0,32.0,-100.00,SW,230,6.0,11.0,64,0.00,,,-99.99,,2013-02-13 22:11:00,
2013-02-13 16:21:00,42.0,31.0,-100.00,SW,235,6.0,12.0,65,0.00,,,-99.99,,2013-02-13 22:21:00,
2013-02-13 16:31:00,42.0,31.0,-100.00,SW,225,3.0,9.0,67,0.00,,,-99.99,,2013-02-13 22:31:00,
2013-02-13 16:42:00,42.0,31.0,-100.00,SW,225,3.0,9.0,67,0.00,,,-99.99,,2013-02-13 22:42:00,
2013-02-13 16:51:00,41.0,32.0,-100.00,SW,225,5.0,8.0,70,0.00,,,-99.99,,2013-02-13 22:51:00,
2013-02-13 17:01:00,41.0,32.0,-100.00,SW,225,5.0,8.0,70,0.00,,,-99.99,,2013-02-13 23:01:00,
2013-02-13 17:11:00,40.0,32.0,-100.00,SW,220,5.0,11.0,72,0.00,,,-99.99,,2013-02-13 23:11:00,
2013-02-13 17:21:00,40.0,32.0,-100.00,SSW,205,3.0,8.0,73,0.00,,,-99.99,,2013-02-13 23:21:00,
2013-02-13 17:32:00,39.0,33.0,-100.00,SSW,210,2.0,6.0,76,0.00,,,-99.99,,2013-02-13 23:32:00,
2013-02-13 17:41:00,39.0,33.0,-100.00,SSW,210,2.0,6.0,76,0.00,,,-99.99,,2013-02-13 23:41:00,
2013-02-13 17:52:00,38.0,33.0,-100.00,SSW,195,3.0,6.0,80,0.00,,,-99.99,,2013-02-13 23:52:00,
2013-02-13 18:02:00,38.0,33.0,-100.00,SSW,195,3.0,6.0,80,0.00,,,-99.99,,2013-02-14 00:02:00,
2013-02-13 18:11:00,38.0,33.0,-100.00,SSW,195,3.0,6.0,80,0.00,,,-99.99,,2013-02-14 00:11:00,
2013-02-13 18:21:00,38.0,33.0,-100.00,South,180,6.0,7.0,81,0.00,,,-99.99,,2013-02-14 00:21:00,
2013-02-13 18:32:00,38.0,33.0,-100.00,SSW,195,2.0,7.0,83,0.00,,,-99.99,,2013-02-14 00:32:00,
2013-02-13 18:42:00,38.0,33.0,-100.00,SSW,195,2.0,7.0,83,0.00,,,-99.99,,2013-02-14 00:42:00,
2013-02-13 18:52:00,37.0,33.0,-100.00,SSE,165,3.0,6.0,85,0.00,,,-99.99,,2013-02-14 00:52:00,
2013-02-13 19:01:00,37.0,33.0,-100.00,SSE,165,3.0,6.0,85,0.00,,,-99.99,,2013-02-14 01:01:00,
2013-02-13 19:11:00,37.0,33.0,-100.00,South,180,3.0,7.0,85,0.00,,,-99.99,,2013-02-14 01:11:00,
2013-02-13 19:21:00,37.0,33.0,-100.00,South,180,3.0,5.0,86,0.00,,,-99.99,,2013-02-14 01:21:00,
2013-02-13 19:31:00,37.0,33.0,-100.00,SSE,165,1.0,4.0,86,0.00,,,-99.99,,2013-02-14 01:31:00,
2013-02-13 19:41:00,37.0,33.0,-100.00,SSE,165,1.0,4.0,86,0.00,,,-99.99,,2013-02-14 01:41:00,
2013-02-13 19:51:00,39.0,34.0,-100.00,WSW,255,10.0,17.0,83,0.03,,,-99.99,,2013-02-14 01:51:00,
2013-02-13 20:01:00,39.0,34.0,-100.00,WSW,255,10.0,17.0,83,0.03,,,-99.99,,2013-02-14 02:01:00,
2013-02-13 20:11:00,38.0,35.0,-100.00,West,270,8.0,17.0,85,0.03,,,-99.99,,2013-02-14 02:11:00,
2013-02-13 20:21:00,38.0,34.0,-100.00,West,270,6.0,12.0,86,0.03,,,-99.99,,2013-02-14 02:21:00,
2013-02-13 20:31:00,37.0,34.0,-100.00,WSW,245,2.0,4.0,88,0.00,,,-99.99,,2013-02-14 02:31:00,
2013-02-13 20:41:00,37.0,34.0,-100.00,WSW,245,2.0,4.0,88,0.00,,,-99.99,,2013-02-14 02:41:00,
2013-02-13 20:51:00,37.0,34.0,-100.00,WSW,245,2.0,4.0,88,0.00,,,-99.99,,2013-02-14 02:51:00,
2013-02-13 21:02:00,37.0,34.0,-100.00,SW,235,3.0,4.0,90,0.00,,,-99.99,,2013-02-14 03:02:00,
2013-02-13 21:11:00,36.0,34.0,-100.00,SW,220,3.0,5.0,90,0.00,,,-99.99,,2013-02-14 03:11:00,
2013-02-13 21:21:00,36.0,34.0,-100.00,SW,225,2.0,3.0,91,0.00,,,-99.99,,2013-02-14 03:21:00,
2013-02-13 21:31:00,36.0,34.0,-100.00,SW,220,4.0,7.0,91,0.00,,,-99.99,,2013-02-14 03:31:00,
2013-02-13 21:42:00,36.0,34.0,-100.00,SW,220,4.0,7.0,91,0.00,,,-99.99,,2013-02-14 03:42:00,
2013-02-13 21:51:00,37.0,35.0,-100.00,WSW,250,7.0,10.0,90,0.00,,,-99.99,,2013-02-14 03:51:00,
2013-02-13 22:01:00,37.0,35.0,-100.00,WSW,250,7.0,10.0,90,0.00,,,-99.99,,2013-02-14 04:01:00,
2013-02-13 22:11:00,38.0,34.0,-100.00,WSW,255,6.0,12.0,86,0.00,,,-99.99,,2013-02-14 04:11:00,
2013-02-13 22:21:00,37.0,34.0,-100.00,WSW,245,6.0,10.0,85,0.00,,,-99.99,,2013-02-14 04:21:00,
2013-02-13 22:31:00,38.0,33.0,-100.00,West,270,9.0,15.0,81,0.00,,,-99.99,,2013-02-14 04:31:00,
2013-02-13 22:41:00,38.0,33.0,-100.00,West,270,9.0,15.0,81,0.00,,,-99.99,,2013-02-14 04:41:00,
2013-02-13 22:51:00,37.0,32.0,-100.00,West,280,12.0,19.0,81,0.00,,,-99.99,,2013-02-14 04:51:00,
2013-02-13 23:02:00,37.0,32.0,-100.00,West,280,12.0,19.0,81,0.00,,,-99.99,,2013-02-14 05:02:00,
2013-02-13 23:11:00,36.0,32.0,-100.00,West,280,13.0,19.0,83,0.00,,,-99.99,,2013-02-14 05:11:00,
2013-02-13 23:21:00,36.0,32.0,-100.00,WNW,285,11.0,16.0,84,0.00,,,-99.99,,2013-02-14 05:21:00,
2013-02-13 23:31:00,35.0,32.0,-100.00,West,280,11.0,17.0,87,0.00,,,-99.99,,2013-02-14 05:31:00,
2013-02-13 23:41:00,35.0,32.0,-100.00,West,280,11.0,17.0,87,0.00,,,-99.99,,2013-02-14 05:41:00,
2013-02-13 23:52:00,35.0,32.0,-100.00,West,275,11.0,17.0,88,0.00,,,-99.99,,2013-02-14 05:52:00,